| time (UTC) | temp F | wind direction | speed MPH | gust MPH | rain 1hr in | rain 24hr in | rain mn in | humidity % | barometer mb |
| 20260505214554 | 50 | 257 | 1.0 | 5.0 | 0.12 | 0.25 | 0.19 | 94 | 1007.7 |
| 20260505213023 | 51 | 261 | 2.0 | 12.0 | 0.11 | 0.22 | 0.16 | 94 | 1007.3 |
| 20260505211520 | 51 | 219 | 2.0 | 8.0 | 0.08 | 0.19 | 0.13 | 93 | 1006.8 |
| 20260505210020 | 51 | 206 | 1.0 | 8.0 | 0.05 | 0.16 | 0.10 | 93 | 1006.7 |
| 20260505204519 | 51 | 192 | 3.0 | 7.0 | 0.02 | 0.13 | 0.07 | 91 | 1006.5 |
| 20260505203023 | 52 | 240 | 2.0 | 7.0 | 0.00 | 0.11 | 0.05 | 91 | 1006.1 |
| 20260505201523 | 52 | 215 | 3.0 | 7.0 | 0.00 | 0.11 | 0.05 | 91 | 1005.9 |
| 20260505200014 | 51 | 198 | 4.0 | 11.0 | 0.00 | 0.11 | 0.05 | 90 | 1006.0 |
| 20260505194514 | 52 | 218 | 5.0 | 12.0 | 0.00 | 0.11 | 0.05 | 87 | 1006.0 |
| 20260505193010 | 54 | 186 | 5.0 | 10.0 | 0.00 | 0.11 | 0.05 | 82 | 1005.7 |
| 20260505191509 | 56 | 175 | 4.0 | 10.0 | 0.00 | 0.11 | 0.05 | 79 | 1005.2 |
| 20260505190007 | 60 | 153 | 7.0 | 17.0 | 0.00 | 0.11 | 0.05 | 75 | 1005.4 |
| 20260505184506 | 63 | 146 | 6.0 | 15.0 | 0.00 | 0.11 | 0.05 | 72 | 1005.4 |
| 20260505183010 | 64 | 252 | 7.0 | 15.0 | 0.00 | 0.11 | 0.05 | 71 | 1005.0 |
| 20260505181501 | 63 | 189 | 5.0 | 18.0 | 0.00 | 0.11 | 0.05 | 74 | 1004.8 |
| 20260505180112 | 62 | 215 | 5.0 | 15.0 | 0.00 | 0.11 | 0.05 | 75 | 1004.7 |
| 20260505174606 | 62 | 244 | 7.0 | 23.0 | 0.00 | 0.11 | 0.05 | 75 | 1004.5 |
| 20260505173100 | 62 | 218 | 10.0 | 25.0 | 0.00 | 0.11 | 0.05 | 74 | 1004.4 |
| 20260505171558 | 62 | 250 | 10.0 | 22.0 | 0.00 | 0.11 | 0.05 | 75 | 1004.6 |
| 20260505170057 | 62 | 236 | 10.0 | 22.0 | 0.00 | 0.11 | 0.05 | 75 | 1004.7 |
| 20260505164557 | 63 | 252 | 11.0 | 24.0 | 0.00 | 0.11 | 0.05 | 72 | 1004.7 |
| 20260505163055 | 62 | 253 | 7.0 | 18.0 | 0.00 | 0.11 | 0.05 | 74 | 1004.3 |
| 20260505161604 | 62 | 215 | 7.0 | 21.0 | 0.00 | 0.11 | 0.05 | 74 | 1004.0 |
| 20260505153048 | 59 | 203 | 8.0 | 26.0 | 0.00 | 0.11 | 0.05 | 74 | 1004.5 |
| 20260505151545 | 61 | 244 | 7.0 | 20.0 | 0.00 | 0.11 | 0.05 | 71 | 1003.9 |
| 20260505124534 | 58 | 240 | 4.0 | 13.0 | 0.00 | 0.11 | 0.05 | 77 | 1002.2 |
| 20260505123027 | 60 | 231 | 8.0 | 14.0 | 0.00 | 0.11 | 0.05 | 72 | 1002.2 |
| 20260505121525 | 60 | 232 | 6.0 | 20.0 | 0.00 | 0.11 | 0.05 | 74 | 1001.6 |
| 20260505120023 | 61 | 244 | 6.0 | 16.0 | 0.00 | 0.11 | 0.05 | 73 | 1001.6 |
| 20260505114521 | 60 | 236 | 7.0 | 17.0 | 0.00 | 0.11 | 0.05 | 75 | 1001.3 |
| 20260505113020 | 59 | 207 | 7.0 | 18.0 | 0.00 | 0.11 | 0.05 | 76 | 1001.2 |
| 20260505111516 | 58 | 115 | 4.0 | 19.0 | 0.00 | 0.11 | 0.05 | 78 | 1001.1 |
| 20260505101517 | 57 | 205 | 5.0 | 13.0 | 0.00 | 0.11 | 0.05 | 81 | 1000.3 |
| 20260505100014 | 56 | 188 | 5.0 | 16.0 | 0.00 | 0.11 | 0.05 | 81 | 1000.1 |
| 20260505094506 | 56 | 179 | 3.0 | 14.0 | 0.00 | 0.11 | 0.05 | 83 | 1000.1 |
| 20260505093019 | 55 | 202 | 4.0 | 14.0 | 0.00 | 0.11 | 0.05 | 85 | 1000.1 |
| 20260505091505 | 55 | 190 | 4.0 | 12.0 | 0.00 | 0.11 | 0.05 | 85 | 999.9 |
| 20260505090004 | 55 | 183 | 4.0 | 13.0 | 0.00 | 0.11 | 0.05 | 87 | 999.8 |
| 20260505084505 | 54 | 201 | 4.0 | 13.0 | 0.00 | 0.11 | 0.05 | 94 | 1000.0 |
| 20260505083003 | 52 | 217 | 3.0 | 9.0 | 0.00 | 0.11 | 0.05 | 95 | 999.9 |
| 20260505081604 | 51 | 194 | 0.0 | 6.0 | 0.00 | 0.11 | 0.05 | 95 | 1000.2 |
| 20260505080113 | 50 | 94 | 1.0 | 7.0 | 0.00 | 0.11 | 0.05 | 93 | 1000.3 |
| 20260505074559 | 50 | 178 | 0.0 | 1.0 | 0.00 | 0.11 | 0.05 | 92 | 1000.5 |
| 20260505073055 | 51 | 178 | 0.0 | 2.0 | 0.00 | 0.11 | 0.05 | 91 | 1000.6 |
| 20260505071557 | 51 | 178 | 1.0 | 4.0 | 0.00 | 0.11 | 0.05 | 91 | 1000.6 |
| 20260505070050 | 52 | 180 | 1.0 | 5.0 | 0.00 | 0.11 | 0.05 | 92 | 1001.0 |
| 20260505064545 | 53 | 180 | 1.0 | 3.0 | 0.00 | 0.11 | 0.05 | 93 | 1001.1 |
| 20260505063056 | 54 | 172 | 1.0 | 6.0 | 0.03 | 0.11 | 0.05 | 93 | 1001.7 |
| 20260505061640 | 54 | 211 | 0.0 | 6.0 | 0.05 | 0.11 | 0.05 | 93 | 1002.1 |
| 20260505060038 | 54 | 254 | 2.0 | 8.0 | 0.05 | 0.11 | 0.05 | 92 | 1002.0 |
| 20260505054537 | 54 | 275 | 2.0 | 10.0 | 0.05 | 0.11 | 0.05 | 91 | 1002.0 |
| 20260505053040 | 55 | 190 | 3.0 | 16.0 | 0.02 | 0.08 | 0.02 | 87 | 1002.5 |
| 20260505051552 | 58 | 240 | 7.0 | 19.0 | 0.00 | 0.06 | 0.00 | 81 | 1002.7 |
| 20260505041516 | 60 | 206 | 5.0 | 14.0 | 0.02 | 0.06 | 0.00 | 76 | 1002.0 |
| 20260505040014 | 59 | 209 | 9.0 | 21.0 | 0.02 | 0.06 | 0.00 | 81 | 1001.9 |
| 20260505034514 | 59 | 175 | 5.0 | 18.0 | 0.02 | 0.06 | 0.06 | 82 | 1001.7 |
| 20260505033010 | 58 | 147 | 4.0 | 9.0 | 0.00 | 0.04 | 0.04 | 81 | 1001.6 |
| 20260505031507 | 56 | 185 | 4.0 | 10.0 | 0.00 | 0.04 | 0.04 | 83 | 1001.7 |
| 20260505030007 | 55 | 94 | 3.0 | 7.0 | 0.00 | 0.04 | 0.04 | 83 | 1001.8 |
| 20260505024509 | 55 | 175 | 5.0 | 12.0 | 0.03 | 0.04 | 0.04 | 84 | 1002.0 |
| 20260505023005 | 54 | 246 | 1.0 | 6.0 | 0.04 | 0.04 | 0.04 | 88 | 1002.2 |
| 20260505021504 | 54 | 190 | 1.0 | 5.0 | 0.04 | 0.04 | 0.04 | 88 | 1002.3 |
| 20260505020006 | 54 | 196 | 2.0 | 9.0 | 0.04 | 0.04 | 0.04 | 85 | 1002.4 |
| 20260505014500 | 54 | 239 | 1.0 | 3.0 | 0.01 | 0.01 | 0.01 | 74 | 1002.8 |
| 20260505013107 | 55 | 147 | 0.0 | 2.0 | 0.00 | 0.00 | 0.00 | 69 | 1002.1 |
| 20260505011601 | 56 | 147 | 0.0 | 2.0 | 0.00 | 0.00 | 0.00 | 65 | 1002.0 |
| 20260505010111 | 57 | 147 | 0.0 | 5.0 | 0.00 | 0.00 | 0.00 | 64 | 1001.9 |
| 20260505004556 | 59 | 169 | 1.0 | 4.0 | 0.00 | 0.00 | 0.00 | 60 | 1002.0 |
| 20260505003057 | 61 | 149 | 2.0 | 8.0 | 0.00 | 0.00 | 0.00 | 56 | 1001.8 |
| 20260505001600 | 62 | 199 | 4.0 | 10.0 | 0.00 | 0.00 | 0.00 | 50 | 1001.9 |
| 20260505000054 | 63 | 294 | 2.0 | 5.0 | 0.00 | 0.00 | 0.00 | 49 | 1002.0 |
| 20260504234549 | 64 | 236 | 5.0 | 12.0 | 0.00 | 0.00 | 0.00 | 47 | 1002.1 |
| 20260504233104 | 65 | 254 | 2.0 | 9.0 | 0.00 | 0.00 | 0.00 | 45 | 1002.2 |
| 20260504231549 | 66 | 236 | 4.0 | 8.0 | 0.00 | 0.00 | 0.00 | 45 | 1002.2 |
| 20260504230054 | 67 | 243 | 6.0 | 15.0 | 0.00 | 0.00 | 0.00 | 43 | 1002.2 |
| 20260504224550 | 67 | 244 | 3.0 | 11.0 | 0.00 | 0.00 | 0.00 | 46 | 1002.3 |
| 20260504223046 | 67 | 242 | 4.0 | 16.0 | 0.00 | 0.00 | 0.00 | 47 | 1002.4 |
| 20260504221545 | 68 | 256 | 3.0 | 12.0 | 0.00 | 0.00 | 0.00 | 48 | 1002.2 |
| 20260504220044 | 68 | 252 | 4.0 | 11.0 | 0.00 | 0.00 | 0.00 | 46 | 1002.2 |